Moab, UT

3:33 AM MDT on October 22, 2019 (GMT -0600)
Canyonlands

Weather History for KCNY - August, 2019

Change the Weather History Date:

Saturday, August 3, 2019

  Actual Average Record
Temperature  
Mean Temperature 87 °F 80 °F  
Max Temperature 101 °F 95 °F 109 °F (1992)
Min Temperature 72 °F 65 °F 52 °F (1975)
Degree Days  
Heating Degree Days 0 0  
Month to date heating degree days 0 0  
Since 1 June heating degree days 23 17  
Since 1 July heating degree days 0 0  
Cooling Degree Days 22 15  
Month to date cooling degree days 56 45  
Year to date cooling degree days 829 838  
Since 1 June cooling degree days 814 774  
Growing Degree Days 36 (Base 50)    
Moisture  
Dew Point 43 °F    
Average Humidity 25    
Maximum Humidity 35    
Minimum Humidity 14    
Precipitation  
Precipitation T in 0.02 in 0.31 in (2015)
Month to date precipitation T 0.07  
Year to date precipitation 6.15 4.61  
Sea Level Pressure  
Sea Level Pressure 29.89 in    
Wind  
Wind Speed 9 mph (South)    
Max Wind Speed 20 mph    
Max Gust Speed 25 mph    
Visibility 10 miles    
Events Rain    
T = Trace of Precipitation, MM = Missing Value Source: NWS Daily Summary

Daily Weather History Graph

Daily Weather History Graph

Search for Another Location

Airport or City:

Astronomy

Aug. 03, 2019 Rise Set
Actual Time 6:21 AM MDT 8:27 PM MDT
Civil Twilight 5:52 AM MDT 8:57 PM MDT
Nautical Twilight 5:16 AM MDT 9:33 PM MDT
Astronomical Twilight 4:37 AM MDT 10:12 PM MDT
Moon 9:17 AM MDT (8/3) 10:37 PM MDT (8/3)
Length of Visible Light 15h 04m
Length of Day
14h 05m
Waxing Crescent, 10% of the Moon is Illuminated
Aug 3
Waxing Crescent
Aug 7
First Quarter
Aug 15
Full
Aug 23
Last Quarter
Aug 30
New

Hourly Weather History & Observations

Time (MDT) Temp. Dew Point Humidity Pressure Visibility Wind Dir Wind Speed Gust Speed Precip Events Conditions
12:53 AM 79.0 °F 39.9 °F 25% 29.88 in 10.0 mi Calm Calm - N/A   Clear
1:53 AM 75.9 °F 39.9 °F 27% 29.87 in 10.0 mi WSW 3.5 mph - N/A   Clear
2:53 AM 75.9 °F 39.9 °F 27% 29.86 in 10.0 mi Calm Calm - N/A   Clear
3:53 AM 75.0 °F 39.9 °F 28% 29.87 in 10.0 mi SE 5.8 mph - N/A   Clear
4:53 AM 73.9 °F 39.0 °F 28% 29.87 in 10.0 mi SW 3.5 mph - N/A   Clear
5:53 AM 72.0 °F 42.1 °F 34% 29.90 in 10.0 mi SE 8.1 mph - N/A   Clear
6:53 AM 73.9 °F 43.0 °F 33% 29.91 in 10.0 mi SE 4.6 mph - N/A   Clear
7:53 AM 79.0 °F 46.0 °F 31% 29.91 in 10.0 mi ESE 5.8 mph - N/A   Clear
8:53 AM 84.0 °F 46.0 °F 26% 29.94 in 10.0 mi East 10.4 mph - N/A   Clear
9:53 AM 86.0 °F 45.0 °F 24% 29.94 in 10.0 mi SE 6.9 mph - N/A   Clear
10:53 AM 89.1 °F 45.0 °F 22% 29.92 in 10.0 mi ESE 9.2 mph - N/A   Clear
11:53 AM 91.9 °F 44.1 °F 19% 29.91 in 10.0 mi SSE 6.9 mph - N/A   Clear
12:53 PM 95.0 °F 42.1 °F 16% 29.88 in 10.0 mi ESE 8.1 mph - N/A   Clear
1:53 PM 99.0 °F 42.1 °F 14% 29.85 in 10.0 mi Variable 6.9 mph - N/A   Clear
2:53 PM 98.1 °F 41.0 °F 14% 29.84 in 10.0 mi WSW 11.5 mph 18.4 mph N/A   Clear
3:53 PM 95.0 °F 39.0 °F 14% 29.83 in 10.0 mi WNW 10.4 mph - N/A   Clear
4:53 PM 96.1 °F 42.1 °F 15% 29.83 in 10.0 mi West 15.0 mph 19.6 mph N/A   Partly Cloudy
5:24 PM 93.9 °F 42.1 °F 17% 30.03 in 10.0 mi SW 13.8 mph 20.7 mph N/A   Clear
5:53 PM 93.9 °F 41.0 °F 16% 29.83 in 10.0 mi West 12.7 mph - N/A   Clear
6:53 PM 91.0 °F 45.0 °F 20% 29.83 in 10.0 mi West 15.0 mph - N/A   Clear
7:53 PM 91.0 °F 39.9 °F 17% 29.83 in 10.0 mi West 10.4 mph - N/A   Clear
8:53 PM 89.1 °F 43.0 °F 20% 29.84 in 10.0 mi West 9.2 mph - N/A   Clear
9:53 PM 86.0 °F 44.1 °F 23% 29.89 in 10.0 mi South 4.6 mph - N/A   Overcast
10:23 PM 84.9 °F 46.9 °F 27% 30.10 in 10.0 mi SSE 16.1 mph - 0.00 in Rain Light Rain
10:53 PM 84.9 °F 46.9 °F 27% 29.89 in 10.0 mi SE 17.3 mph - 0.00 in   Scattered Clouds
11:53 PM 84.0 °F 48.0 °F 28% 29.90 in 10.0 mi ESE 13.8 mph - N/A   Overcast